When you browse on this site, cookies collect data to enhance your experience and personalize the content and advertising you see.
Visit our Privacy Policy to learn more. By continuing to use the site, you agree to this use of cookies and data.
  • In Hungary
  • List of Countries
  • For 7 days
  • Water Temperature
  • Satellite Maps
  • Weather Map
  • News
  • Weather Widgets
  • user-avatar
    Login

    Hourly Weather Mislata

    Today, 19 January, Saturday

    Time Temperature Precipitation Wind Pressure Humidity
    00:00 +7°C° 0 mm 3 mps 760 mmHg 47%
    01:00 +5°C° 0 mm 3 mps 759 mmHg 47%
    02:00 +5°C° 0 mm 3 mps 759 mmHg 48%
    03:00 +5°C° 0 mm 3 mps 759 mmHg 48%
    04:00 +4°C° 0 mm 3 mps 759 mmHg 50%
    05:00 +4°C° 0 mm 3 mps 759 mmHg 52%
    06:00 +4°C° 0 mm 4 mps 759 mmHg 53%
    07:00 +5°C° 0 mm 4 mps 759 mmHg 52%
    08:00 +6°C° 0 mm 4 mps 759 mmHg 51%
    09:00 +8°C° 0 mm 3 mps 759 mmHg 51%
    10:00 +10°C° 0 mm 3 mps 759 mmHg 46%
    11:00 +12°C° 0 mm 3 mps 759 mmHg 42%
    12:00 +14°C° 0 mm 3 mps 758 mmHg 38%
    13:00 +15°C° 0 mm 4 mps 758 mmHg 37%
    14:00 +15°C° 0 mm 4 mps 757 mmHg 36%
    15:00 +17°C° 0 mm 4 mps 756 mmHg 35%
    16:00 +14°C° 0 mm 4 mps 756 mmHg 40%
    17:00 +13°C° 0 mm 4 mps 756 mmHg 45%
    18:00 +11°C° 0 mm 3 mps 756 mmHg 50%
    19:00 +11°C° 0.8 mm 3 mps 756 mmHg 59%
    20:00 +10°C° 0.8 mm 2 mps 756 mmHg 69%
    21:00 +10°C° 0.8 mm 2 mps 755 mmHg 78%
    22:00 +9°C° 0.6 mm 2 mps 755 mmHg 79%
    23:00 +9°C° 0.6 mm 2 mps 755 mmHg 80%

    Tomorrow, 20 January, Sunday

    Time Temperature Precipitation Wind Pressure Humidity
    00:00 +9°C° 0.6 mm 2 mps 754 mmHg 81%
    01:00 +9°C° 0 mm 2 mps 754 mmHg 82%
    02:00 +9°C° 0 mm 2 mps 753 mmHg 83%
    03:00 +9°C° 0 mm 2 mps 753 mmHg 84%
    04:00 +9°C° 0.1 mm 2 mps 752 mmHg 84%
    05:00 +9°C° 0.1 mm 2 mps 752 mmHg 84%
    06:00 +10°C° 0.1 mm 2 mps 752 mmHg 84%
    07:00 +10°C° 0.2 mm 2 mps 752 mmHg 82%
    08:00 +11°C° 0.2 mm 3 mps 753 mmHg 81%
    09:00 +11°C° 0.2 mm 3 mps 753 mmHg 79%
    10:00 +11°C° 0.4 mm 3 mps 753 mmHg 78%
    11:00 +13°C° 0.4 mm 2 mps 753 mmHg 76%
    12:00 +13°C° 0.4 mm 2 mps 754 mmHg 74%
    13:00 +13°C° 0 mm 2 mps 754 mmHg 69%
    14:00 +14°C° 0 mm 2 mps 754 mmHg 64%
    15:00 +14°C° 0 mm 2 mps 754 mmHg 59%
    16:00 +13°C° 0.1 mm 2 mps 754 mmHg 63%
    17:00 +12°C° 0.1 mm 2 mps 755 mmHg 66%
    18:00 +10°C° 0.1 mm 2 mps 756 mmHg 69%
    19:00 +10°C° 0 mm 2 mps 756 mmHg 69%
    20:00 +9°C° 0 mm 3 mps 757 mmHg 70%
    21:00 +9°C° 0 mm 3 mps 758 mmHg 70%
    22:00 +9°C° 0 mm 3 mps 758 mmHg 70%
    23:00 +8°C° 0 mm 3 mps 758 mmHg 69%

    Day after tomorrow, 21 January, Monday

    Time Temperature Precipitation Wind Pressure Humidity
    00:00 +8°C° 0 mm 3 mps 759 mmHg 69%
    01:00 +8°C° 0 mm 3 mps 759 mmHg 70%
    02:00 +7°C° 0 mm 3 mps 759 mmHg 71%
    03:00 +5°C° 0 mm 3 mps 759 mmHg 72%
    04:00 +5°C° 0 mm 3 mps 759 mmHg 73%
    05:00 +5°C° 0 mm 3 mps 760 mmHg 74%
    06:00 +4°C° 0 mm 3 mps 760 mmHg 74%
    07:00 +5°C° 0 mm 3 mps 760 mmHg 71%
    08:00 +7°C° 0 mm 3 mps 760 mmHg 67%
    09:00 +8°C° 0 mm 3 mps 761 mmHg 64%
    10:00 +10°C° 0 mm 3 mps 761 mmHg 56%
    11:00 +13°C° 0 mm 2 mps 761 mmHg 48%
    12:00 +15°C° 0 mm 2 mps 760 mmHg 40%
    13:00 +14°C° 0 mm 2 mps 760 mmHg 40%
    14:00 +14°C° 0 mm 2 mps 760 mmHg 40%
    15:00 +14°C° 0 mm 2 mps 760 mmHg 40%
    16:00 +12°C° 0 mm 3 mps 760 mmHg 44%
    17:00 +11°C° 0 mm 3 mps 760 mmHg 47%
    18:00 +9°C° 0 mm 3 mps 761 mmHg 51%
    19:00 +8°C° 0 mm 4 mps 761 mmHg 53%
    20:00 +7°C° 0 mm 4 mps 761 mmHg 54%
    21:00 +6°C° 0 mm 5 mps 762 mmHg 56%
    22:00 +6°C° 0 mm 4 mps 762 mmHg 58%
    23:00 +5°C° 0 mm 4 mps 762 mmHg 60%

    22 January, Tuesday

    Time Temperature Precipitation Wind Pressure Humidity
    00:00 +4°C° 0 mm 3 mps 762 mmHg 62%
    01:00 +4°C° 0 mm 3 mps 762 mmHg 63%
    02:00 +3°C° 0 mm 4 mps 761 mmHg 65%
    03:00 +3°C° 0 mm 4 mps 761 mmHg 66%
    04:00 +3°C° 0 mm 4 mps 760 mmHg 65%
    05:00 +3°C° 0 mm 4 mps 760 mmHg 63%
    06:00 +3°C° 0 mm 4 mps 760 mmHg 62%
    07:00 +4°C° 0 mm 4 mps 759 mmHg 59%
    08:00 +6°C° 0 mm 5 mps 759 mmHg 55%
    09:00 +7°C° 0 mm 6 mps 759 mmHg 52%
    10:00 +9°C° 0 mm 6 mps 758 mmHg 50%
    11:00 +10°C° 0 mm 7 mps 757 mmHg 48%
    12:00 +12°C° 0 mm 8 mps 756 mmHg 46%
    13:00 +12°C° 0.2 mm 7 mps 756 mmHg 47%
    14:00 +12°C° 0.2 mm 7 mps 755 mmHg 47%
    15:00 +13°C° 0.2 mm 6 mps 754 mmHg 48%
    16:00 +11°C° 0.2 mm 6 mps 754 mmHg 53%
    17:00 +10°C° 0.2 mm 5 mps 753 mmHg 57%
    18:00 +10°C° 0.2 mm 4 mps 753 mmHg 62%
    19:00 +8°C° 0 mm 4 mps 753 mmHg 62%
    20:00 +7°C° 0 mm 5 mps 753 mmHg 62%
    21:00 +7°C° 0 mm 5 mps 753 mmHg 61%
    22:00 +7°C° 0 mm 6 mps 753 mmHg 60%
    23:00 +6°C° 0 mm 7 mps 752 mmHg 58%

    23 January, Wednesday

    Time Temperature Precipitation Wind Pressure Humidity
    00:00 +6°C° 0 mm 8 mps 752 mmHg 56%
    01:00 +5°C° 0 mm 7 mps 751 mmHg 57%
    02:00 +5°C° 0 mm 7 mps 751 mmHg 58%
    03:00 +5°C° 0 mm 6 mps 750 mmHg 58%
    04:00 +4°C° 0 mm 6 mps 750 mmHg 57%
    05:00 +4°C° 0 mm 6 mps 750 mmHg 57%
    06:00 +4°C° 0 mm 6 mps 750 mmHg 56%
    07:00 +5°C° 0 mm 6 mps 751 mmHg 53%
    08:00 +6°C° 0 mm 7 mps 751 mmHg 50%
    09:00 +8°C° 0 mm 7 mps 751 mmHg 48%
    10:00 +8°C° 0 mm 7 mps 751 mmHg 45%
    11:00 +9°C° 0 mm 7 mps 750 mmHg 41%
    12:00 +10°C° 0 mm 8 mps 750 mmHg 38%
    13:00 +9°C° 0.5 mm 7 mps 749 mmHg 42%
    14:00 +8°C° 0.5 mm 5 mps 748 mmHg 46%
    15:00 +7°C° 0.5 mm 4 mps 748 mmHg 51%
    16:00 +6°C° 0 mm 5 mps 748 mmHg 51%
    17:00 +4°C° 0 mm 6 mps 749 mmHg 52%
    18:00 +3°C° 0 mm 6 mps 749 mmHg 53%
    19:00 +2°C° 0 mm 7 mps 750 mmHg 50%
    20:00 +1°C° 0 mm 8 mps 750 mmHg 48%
    21:00 +1°C° 0 mm 9 mps 751 mmHg 45%
    22:00 +1°C° 0 mm 9 mps 751 mmHg 47%
    23:00 0°C° 0 mm 9 mps 751 mmHg 48%

    24 January, Thursday

    Time Temperature Precipitation Wind Pressure Humidity
    00:00 0°C° 0 mm 9 mps 752 mmHg 50%
    01:00 0°C° 0 mm 8 mps 752 mmHg 49%
    02:00 -1°C° 0 mm 8 mps 752 mmHg 48%
    03:00 -1°C° 0 mm 8 mps 752 mmHg 48%
    04:00 -1°C° 0 mm 7 mps 752 mmHg 48%
    05:00 -1°C° 0 mm 7 mps 753 mmHg 48%
    06:00 -2°C° 0 mm 6 mps 753 mmHg 48%
    07:00 -1°C° 0 mm 6 mps 753 mmHg 46%
    08:00 +1°C° 0 mm 6 mps 754 mmHg 44%
    09:00 +2°C° 0 mm 6 mps 754 mmHg 42%
    10:00 +5°C° 0 mm 5 mps 754 mmHg 39%
    11:00 +7°C° 0 mm 5 mps 754 mmHg 36%
    12:00 +10°C° 0 mm 4 mps 754 mmHg 34%
    13:00 +10°C° 0 mm 4 mps 754 mmHg 35%
    14:00 +10°C° 0 mm 4 mps 754 mmHg 35%
    15:00 +10°C° 0 mm 4 mps 754 mmHg 36%
    16:00 +7°C° 0 mm 4 mps 754 mmHg 43%
    17:00 +5°C° 0 mm 4 mps 755 mmHg 49%
    18:00 +3°C° 0 mm 4 mps 755 mmHg 56%
    19:00 +1°C° 0 mm 4 mps 756 mmHg 58%
    20:00 0°C° 0 mm 4 mps 756 mmHg 60%
    21:00 0°C° 0 mm 4 mps 757 mmHg 62%
    22:00 -1°C° 0 mm 4 mps 757 mmHg 62%
    23:00 -1°C° 0 mm 4 mps 757 mmHg 63%
    Show more